MB7UCW-13 Weather Reports


time (UTC)temp
F
wind
direction
speed
knots
gust
knots
rain 1hr
in
rain 24hr
in
rain mn
in
humidity
%
barometer
mb
20260508090002 58 182 2.6 6.1 0.00 0.00 0.00 70 1016.6
20260508084502 58 157 2.6 6.1 0.00 0.00 0.00 70 1016.7
20260508083002 57 165 1.7 6.1 0.00 0.00 0.00 73 1016.7
20260508081523 56 156 2.6 6.1 0.00 0.00 0.00 75 1016.6
20260508080002 55 146 2.6 6.1 0.00 0.00 0.00 77 1016.6
20260508074502 54 163 2.6 6.1 0.00 0.00 0.00 80 1016.5
20260508073002 54 281 1.7 3.5 0.00 0.00 0.00 83 1016.3
20260508071502 53 160 1.7 5.2 0.00 0.00 0.00 84 1016.4
20260508070002 53 175 1.7 5.2 0.00 0.00 0.00 86 1016.2
20260508064502 52 141 0.9 2.6 0.00 0.00 0.00 88 1016.2
20260508063002 51 109 0.9 3.5 0.00 0.00 0.00 89 1016.1
20260508061502 50 102 1.7 3.5 0.00 0.00 0.00 90 1016.0
20260508060002 49 48 0.9 2.6 0.00 0.00 0.00 90 1015.8
20260508054502 48 44 0.9 2.6 0.00 0.00 0.00 91 1015.7
20260508053002 48 44 0.0 1.7 0.00 0.00 0.00 91 1015.7
20260508051502 47 30 0.0 0.9 0.00 0.00 0.00 91 1015.7
20260508050002 47 110 0.0 0.9 0.00 0.00 0.00 91 1015.5
20260508044502 47 168 0.9 3.5 0.00 0.00 0.00 91 1015.5
20260508043002 47 168 0.0 1.7 0.00 0.00 0.00 91 1015.5
20260508041502 47 163 0.9 1.7 0.00 0.00 0.00 90 1015.4
20260508040002 47 0 0.0 0.9 0.00 0.00 0.00 90 1015.4
20260508034502 47 0 0.0 0.0 0.00 0.00 0.00 90 1015.3
20260508033002 47 164 0.0 1.7 0.00 0.00 0.00 90 1015.4
20260508031523 46 163 0.0 1.7 0.00 0.00 0.00 90 1015.3
20260508030002 46 163 0.9 1.7 0.00 0.00 0.00 90 1015.4
20260508024502 46 0 0.0 1.7 0.00 0.00 0.00 90 1015.3
20260508023002 46 163 0.0 1.7 0.00 0.00 0.00 89 1015.4
20260508021502 46 163 0.0 0.9 0.00 0.00 0.00 89 1015.2
20260508020002 46 163 0.0 0.9 0.00 0.00 0.00 88 1015.1
20260508014502 46 163 0.9 3.5 0.00 0.00 0.00 88 1015.1
20260508013023 47 163 0.9 3.5 0.00 0.00 0.00 87 1015.3
20260508011523 48 163 1.7 3.5 0.00 0.00 0.00 87 1015.4
20260508010002 48 163 1.7 3.5 0.00 0.00 0.00 86 1015.3
20260508004502 48 163 0.9 3.5 0.00 0.00 0.00 86 1015.2
20260508003002 49 163 1.7 4.3 0.00 0.00 0.00 85 1015.3
20260508001502 49 163 0.9 1.7 0.00 0.00 0.00 84 1015.4
20260508000002 50 163 0.9 3.5 0.00 0.00 0.00 83 1015.5
20260507234502 51 163 1.7 3.5 0.00 0.00 0.00 82 1015.4
20260507233002 51 163 1.7 3.5 0.00 0.00 0.00 82 1015.5
20260507231502 52 163 0.9 3.5 0.00 0.00 0.00 80 1015.4
20260507230003 52 164 2.6 5.2 0.00 0.00 0.00 81 1015.3
20260507224523 52 169 2.6 5.2 0.00 0.00 0.00 81 1015.2
20260507223023 52 172 1.7 4.3 0.00 0.00 0.00 82 1015.2
20260507221502 52 172 1.7 5.2 0.00 0.00 0.00 81 1015.1
20260507220002 52 173 2.6 5.2 0.00 0.00 0.00 81 1015.1
20260507214502 52 174 2.6 5.2 0.00 0.00 0.00 81 1015.1
20260507213002 52 175 1.7 5.2 0.00 0.00 0.00 80 1015.1
20260507211502 52 176 1.7 3.5 0.00 0.00 0.00 79 1015.2
20260507210002 53 176 1.7 3.5 0.00 0.00 0.00 78 1015.1
20260507204502 53 177 1.7 3.5 0.00 0.00 0.00 78 1014.9
20260507203023 53 177 1.7 3.5 0.00 0.00 0.00 77 1014.8
20260507201502 54 178 1.7 6.1 0.00 0.00 0.00 76 1014.7
20260507200002 54 172 1.7 6.1 0.00 0.00 0.00 76 1014.6
20260507194502 54 171 1.7 4.3 0.00 0.00 0.00 74 1014.6
20260507193024 54 150 1.7 4.3 0.00 0.00 0.00 73 1014.3
20260507191503 55 157 1.7 4.3 0.00 0.00 0.00 72 1014.4
20260507190004 55 191 2.6 7.0 0.00 0.00 0.00 70 1014.4
20260507184503 55 184 4.3 10.4 0.00 0.00 0.00 68 1014.2
20260507183023 56 185 4.3 9.6 0.00 0.00 0.00 67 1014.2
20260507181503 56 169 4.3 12.2 0.00 0.00 0.00 67 1014.2
20260507180002 56 207 4.3 7.0 0.00 0.00 0.00 68 1014.0
20260507174503 57 201 3.5 8.7 0.00 0.00 0.00 66 1013.9
20260507173003 58 209 3.5 11.3 0.00 0.00 0.00 63 1014.0
20260507171503 58 229 1.7 3.5 0.00 0.00 0.00 60 1014.0
20260507170003 58 190 1.7 3.5 0.00 0.00 0.00 60 1013.9
20260507164502 58 194 1.7 6.1 0.00 0.00 0.00 57 1014.0
20260507163003 59 190 2.6 8.7 0.00 0.00 0.00 55 1013.9
20260507161524 59 170 4.3 8.7 0.00 0.00 0.00 54 1014.0
20260507160003 60 180 5.2 11.3 0.00 0.00 0.00 53 1014.1
20260507154503 60 165 6.1 11.3 0.00 0.00 0.00 52 1014.0
20260507153023 61 180 5.2 12.2 0.00 0.00 0.00 51 1014.2
20260507151503 61 177 6.1 13.0 0.00 0.00 0.00 50 1014.2
20260507150003 60 167 7.0 13.0 0.00 0.00 0.00 50 1014.2
20260507144502 61 168 5.2 12.2 0.00 0.00 0.00 53 1014.3
20260507143003 60 169 6.1 11.3 0.00 0.00 0.00 54 1014.5
20260507141523 60 188 6.1 12.2 0.00 0.00 0.00 56 1014.7
20260507140024 61 169 5.2 11.3 0.00 0.00 0.00 56 1014.8
20260507134524 60 161 5.2 13.0 0.00 0.00 0.00 56 1014.9
20260507133002 61 170 5.2 13.0 0.00 0.00 0.00 55 1014.9
20260507131503 60 170 6.1 12.2 0.00 0.00 0.00 55 1015.0
20260507130002 59 192 6.1 13.0 0.00 0.00 0.00 58 1015.0
20260507124502 59 173 7.0 13.9 0.00 0.00 0.00 55 1015.1
20260507123003 59 157 5.2 11.3 0.00 0.00 0.00 61 1015.1
20260507121502 58 167 5.2 11.3 0.00 0.00 0.00 61 1015.2
20260507120002 58 149 7.0 11.3 0.00 0.00 0.00 63 1015.3
20260507114503 56 168 5.2 13.0 0.00 0.00 0.00 66 1015.4
20260507113024 56 174 5.2 10.4 0.00 0.00 0.00 69 1015.5
20260507111503 54 167 4.3 10.4 0.00 0.00 0.00 71 1015.6
20260507110002 54 168 4.3 10.4 0.00 0.00 0.00 74 1015.6
20260507104503 53 164 5.2 11.3 0.00 0.00 0.00 74 1015.8
20260507103002 52 148 7.0 11.3 0.00 0.00 0.00 75 1015.9
20260507101502 52 160 5.2 10.4 0.00 0.00 0.00 79 1015.8
20260507100003 51 148 5.2 9.6 0.00 0.00 0.00 80 1015.8
20260507094502 50 144 5.2 10.4 0.00 0.00 0.00 81 1015.7
20260507093003 50 150 6.1 10.4 0.00 0.00 0.00 82 1015.7
20260507091502 49 169 3.5 8.7 0.00 0.00 0.00 83 1015.8